| time (UTC) | temp F | wind direction | speed MPH | gust MPH | rain 1hr in | rain 24hr in | rain mn in | humidity % | barometer mb |
| 20260505064550 | 68 | 73 | 9.0 | 11.0 | 0.00 | 0.00 | 0.00 | 73 | 1000.4 |
| 20260505063047 | 69 | 98 | 5.0 | 8.0 | 0.00 | 0.00 | 0.00 | 72 | 1000.1 |
| 20260505061545 | 69 | 108 | 4.0 | 13.0 | 0.00 | 0.00 | 0.00 | 71 | 999.9 |
| 20260505060044 | 69 | 144 | 8.0 | 15.0 | 0.00 | 0.00 | 0.00 | 71 | 999.3 |
| 20260505054542 | 69 | 192 | 10.0 | 19.0 | 0.00 | 0.00 | 0.00 | 71 | 999.5 |
| 20260505053039 | 69 | 176 | 6.0 | 13.0 | 0.00 | 0.00 | 0.00 | 71 | 999.6 |
| 20260505051537 | 69 | 208 | 8.0 | 18.0 | 0.00 | 0.00 | 0.00 | 69 | 999.3 |
| 20260505050104 | 70 | 138 | 7.0 | 15.0 | 0.00 | 0.00 | 0.00 | 66 | 999.0 |
| 20260505041547 | 69 | 127 | 4.0 | 12.0 | 0.00 | 0.00 | 0.00 | 70 | 999.2 |
| 20260505040030 | 70 | 178 | 5.0 | 19.0 | 0.00 | 0.00 | 0.00 | 73 | 998.8 |
| 20260505034528 | 72 | 217 | 10.0 | 16.0 | 0.00 | 0.00 | 0.00 | 71 | 999.1 |
| 20260505033027 | 72 | 163 | 3.0 | 13.0 | 0.00 | 0.00 | 0.00 | 68 | 999.1 |
| 20260505031525 | 72 | 206 | 3.0 | 12.0 | 0.00 | 0.00 | 0.00 | 67 | 999.6 |
| 20260505030029 | 73 | 190 | 7.0 | 14.0 | 0.00 | 0.00 | 0.00 | 66 | 999.5 |
| 20260505024526 | 73 | 183 | 7.0 | 19.0 | 0.00 | 0.00 | 0.00 | 65 | 999.7 |
| 20260505023028 | 74 | 186 | 6.0 | 13.0 | 0.00 | 0.00 | 0.00 | 64 | 999.4 |
| 20260505021526 | 74 | 167 | 9.0 | 15.0 | 0.00 | 0.00 | 0.00 | 63 | 999.7 |
| 20260505020021 | 74 | 175 | 6.0 | 13.0 | 0.00 | 0.00 | 0.00 | 62 | 1000.0 |
| 20260505014519 | 74 | 159 | 6.0 | 12.0 | 0.00 | 0.00 | 0.00 | 60 | 999.2 |
| 20260505013020 | 75 | 164 | 5.0 | 10.0 | 0.00 | 0.00 | 0.00 | 58 | 999.1 |
| 20260505011527 | 75 | 170 | 4.0 | 10.0 | 0.00 | 0.00 | 0.00 | 56 | 998.8 |
| 20260505010017 | 76 | 149 | 6.0 | 11.0 | 0.00 | 0.00 | 0.00 | 55 | 998.5 |
| 20260505004529 | 76 | 150 | 6.0 | 11.0 | 0.00 | 0.00 | 0.00 | 54 | 998.6 |
| 20260505003015 | 77 | 126 | 4.0 | 10.0 | 0.00 | 0.00 | 0.00 | 52 | 998.8 |
| 20260505001514 | 78 | 182 | 6.0 | 13.0 | 0.00 | 0.00 | 0.00 | 50 | 998.6 |
| 20260505000021 | 78 | 157 | 4.0 | 14.0 | 0.00 | 0.00 | 0.00 | 49 | 998.8 |
| 20260504234512 | 79 | 209 | 5.0 | 11.0 | 0.00 | 0.00 | 0.00 | 48 | 999.1 |
| 20260504233011 | 79 | 211 | 7.0 | 12.0 | 0.00 | 0.00 | 0.00 | 47 | 999.1 |
| 20260504231510 | 80 | 193 | 9.0 | 19.0 | 0.00 | 0.00 | 0.00 | 45 | 999.1 |
| 20260504230016 | 81 | 195 | 10.0 | 21.0 | 0.00 | 0.00 | 0.00 | 43 | 999.0 |
| 20260504224508 | 81 | 191 | 10.0 | 19.0 | 0.00 | 0.00 | 0.00 | 43 | 999.1 |
| 20260504223007 | 82 | 244 | 9.0 | 18.0 | 0.00 | 0.00 | 0.00 | 41 | 999.2 |
| 20260504221506 | 82 | 242 | 8.0 | 21.0 | 0.00 | 0.00 | 0.00 | 41 | 999.1 |
| 20260504220006 | 83 | 193 | 9.0 | 18.0 | 0.00 | 0.00 | 0.00 | 40 | 999.2 |
| 20260504214506 | 83 | 166 | 6.0 | 20.0 | 0.00 | 0.00 | 0.00 | 39 | 999.4 |
| 20260504213013 | 83 | 166 | 12.0 | 21.0 | 0.00 | 0.00 | 0.00 | 39 | 999.8 |
| 20260504211510 | 83 | 208 | 9.0 | 18.0 | 0.00 | 0.00 | 0.00 | 39 | 999.5 |
| 20260504210002 | 83 | 252 | 9.0 | 19.0 | 0.00 | 0.00 | 0.00 | 39 | 999.8 |
| 20260504204603 | 83 | 238 | 9.0 | 19.0 | 0.00 | 0.00 | 0.00 | 38 | 999.9 |
| 20260504203121 | 84 | 244 | 9.0 | 18.0 | 0.00 | 0.00 | 0.00 | 38 | 999.9 |
| 20260504201558 | 84 | 190 | 8.0 | 21.0 | 0.00 | 0.00 | 0.00 | 38 | 1000.2 |
| 20260504200056 | 84 | 213 | 10.0 | 18.0 | 0.00 | 0.00 | 0.00 | 36 | 1000.3 |
| 20260504194603 | 85 | 185 | 8.0 | 16.0 | 0.00 | 0.00 | 0.00 | 34 | 1000.6 |
| 20260504193100 | 84 | 222 | 6.0 | 15.0 | 0.00 | 0.00 | 0.00 | 35 | 1000.6 |
| 20260504191550 | 83 | 246 | 9.0 | 18.0 | 0.00 | 0.00 | 0.00 | 35 | 1000.9 |
| 20260504190109 | 84 | 163 | 9.0 | 15.0 | 0.00 | 0.00 | 0.00 | 35 | 1000.8 |
| 20260504184558 | 83 | 214 | 7.0 | 19.0 | 0.00 | 0.00 | 0.00 | 36 | 1000.9 |
| 20260504183045 | 83 | 242 | 8.0 | 16.0 | 0.00 | 0.00 | 0.00 | 37 | 1001.1 |
| 20260504181544 | 82 | 173 | 6.0 | 16.0 | 0.00 | 0.00 | 0.00 | 37 | 1001.5 |
| 20260504180044 | 81 | 213 | 9.0 | 16.0 | 0.00 | 0.00 | 0.00 | 37 | 1001.5 |
| 20260504174538 | 81 | 231 | 6.0 | 13.0 | 0.00 | 0.00 | 0.00 | 39 | 1001.5 |
| 20260504173045 | 79 | 268 | 8.0 | 14.0 | 0.00 | 0.00 | 0.00 | 40 | 1001.5 |
| 20260504171536 | 79 | 217 | 10.0 | 20.0 | 0.00 | 0.00 | 0.00 | 40 | 1001.6 |
| 20260504081514 | 67 | 156 | 10.0 | 21.0 | 0.00 | 0.00 | 0.00 | 46 | 1004.6 |